Flag for Germany Weather past 2 weeks in Bayreuth, Bavaria, Germany

Now
68 °F

Broken clouds.


Feels Like: 68 °F
Forecast: 45 / 73 °F
Wind: 2 mph from North

Location: Grafenwoehr


UV Index: 3 (Moderate)

Visibility: N/A


Pressure: 30.09 "Hg

Humidity: 34%

Dew point: 38 °F

Location of BayreuthLocation

Historic Weather in Bayreuth

°F

Bayreuth temperature yesterday

Maximum temperature yesterday: 64 °F (at 3:58 PM)
Minimum temperature yesterday: 45 °F (at 11:58 PM)
Average temperature yesterday: 55 °F

Past Weeks' High & Low Weather Summary

 TemperatureHumidityPressure
High68 °F (Apr 23, 1:58 PM)100% (Apr 10, 3:58 AM)30.43 "Hg (Apr 10, 3:58 AM)
Low23 °F (Apr 17, 5:58 AM)23% (Apr 17, 3:58 PM)29.64 "Hg (Apr 21, 4:58 PM)
Average46 °F70%30.03 "Hg
* Reported Apr 8 1:58 PM — Apr 23 1:58 PM, Bayreuth, Weather by CustomWeather, © 2014

Note: Actual official high and low records may vary slightly from our data, if they occured in-between our weather recording intervals... More about our weather records

Advertising

Historic Weather Conditions — Data for Previous 24 hours

 ConditionsComfort  
Time TempWeatherWind HumidityBarometerVisibility
1:58 PM
Apr 23
68 °FSunny.2 mph35%30.10 "HgN/A
12:58 PM66 °FSunny.1 mph37%30.09 "HgN/A
11:58 AM65 °FSunny.3 mph46%30.10 "HgN/A
10:58 AM61 °FSunny.No wind59%30.12 "HgN/A
9:58 AM56 °FSunny.No wind81%30.12 "HgN/A
8:58 AM47 °FSunny.No wind100%30.13 "HgN/A
7:58 AM41 °FSunny.No wind100%30.11 "HgN/A
6:58 AM36 °FClear.No wind100%30.12 "HgN/A
5:58 AM36 °FClear.1 mph100%30.10 "HgN/A
4:58 AM36 °FClear.No wind100%30.09 "HgN/A
3:58 AM37 °FClear.No wind100%30.07 "HgN/A
2:58 AM39 °FClear.No wind100%30.07 "HgN/A
1:58 AM40 °FClear.No wind99%30.05 "HgN/A
12:58 AM42 °FClear.No wind99%30.04 "HgN/A
11:58 PM
Apr 22
45 °FClear.No wind93%30.03 "HgN/A
10:58 PM46 °FClear.No wind83%30.01 "HgN/A
9:58 PM50 °FClear.No wind68%30.00 "HgN/A
8:58 PM55 °FSunny.No wind55%29.98 "HgN/A
7:58 PM61 °FPassing clouds.2 mph39%29.95 "HgN/A
6:58 PM64 °FScattered clouds.5 mph40%29.92 "HgN/A
5:58 PM63 °FPartly sunny.1 mph41%29.92 "HgN/A
4:58 PM63 °FOvercast.No wind41%29.91 "HgN/A
3:58 PM64 °FPartly sunny.2 mph47%29.91 "HgN/A
3:03 PM63 °FPartly sunny.3 mph49%29.91 "HgN/A
Weather by CustomWeather, © 2014

See weather overview